| time (UTC) | temp F | wind direction | speed MPH | gust MPH | rain 1hr in | rain 24hr in | rain mn in | humidity % | barometer mb |
| 20260906070006 | 83 | 165 | 1.0 | 10.0 | 0.00 | 0.00 | 0.00 | 75 | 1010.1 |
| 20260906063005 | 84 | 161 | 0.0 | 9.0 | 0.00 | 0.00 | 0.00 | 74 | 1010.2 |
| 20260906060004 | 84 | 160 | 0.0 | 8.0 | 0.00 | 0.00 | 0.00 | 72 | 1010.6 |
| 20260906053003 | 85 | 161 | 0.0 | 10.0 | 0.00 | 0.00 | 0.00 | 72 | 1010.3 |
| 20260906050003 | 85 | 162 | 2.0 | 14.0 | 0.00 | 0.00 | 0.00 | 70 | 1010.4 |
| 20260906043002 | 86 | 144 | 6.0 | 9.0 | 0.00 | 0.00 | 0.00 | 69 | 1010.2 |
| 20260906040001 | 87 | 128 | 0.0 | 10.0 | 0.00 | 0.00 | 0.00 | 66 | 1010.2 |
| 20260906033000 | 87 | 103 | 0.0 | 10.0 | 0.00 | 0.00 | 0.00 | 63 | 1010.1 |
| 20260906025959 | 88 | 99 | 10.0 | 23.0 | 0.00 | 0.00 | 0.00 | 60 | 1009.5 |
| 20260906022959 | 90 | 91 | 0.0 | 16.0 | 0.00 | 0.00 | 0.00 | 58 | 1008.7 |
| 20260906015958 | 90 | 106 | 8.0 | 15.0 | 0.00 | 0.00 | 0.00 | 57 | 1008.1 |
| 20260906012957 | 92 | 102 | 4.0 | 21.0 | 0.00 | 0.00 | 0.00 | 55 | 1007.8 |
| 20260906005956 | 94 | 98 | 1.0 | 14.0 | 0.00 | 0.00 | 0.00 | 49 | 1007.6 |
| 20260906002955 | 95 | 98 | 0.0 | 0.0 | 0.00 | 0.00 | 0.00 | 45 | 1007.5 |
| 20260905235955 | 97 | 98 | 0.0 | 10.0 | 0.00 | 0.00 | 0.00 | 42 | 1007.5 |
| 20260905232954 | 100 | 92 | 7.0 | 17.0 | 0.00 | 0.00 | 0.00 | 39 | 1007.2 |
| 20260905225953 | 101 | 88 | 0.0 | 0.0 | 0.00 | 0.00 | 0.00 | 37 | 1007.4 |
| 20260905222953 | 101 | 88 | 0.0 | 0.0 | 0.00 | 0.00 | 0.00 | 38 | 1007.3 |
| 20260905215952 | 99 | 88 | 0.0 | 0.0 | 0.00 | 0.00 | 0.00 | 39 | 1007.6 |
| 20260905212951 | 101 | 88 | 0.0 | 8.0 | 0.00 | 0.00 | 0.00 | 38 | 1007.8 |
| 20260905205950 | 99 | 84 | 0.0 | 13.0 | 0.00 | 0.00 | 0.00 | 40 | 1008.1 |
| 20260905202949 | 101 | 74 | 0.0 | 4.0 | 0.00 | 0.00 | 0.00 | 37 | 1008.7 |
| 20260905192948 | 99 | 82 | 0.0 | 4.0 | 0.00 | 0.00 | 0.00 | 41 | 1009.7 |
| 20260905182946 | 94 | 150 | 0.0 | 10.0 | 0.00 | 0.00 | 0.00 | 51 | 1010.6 |
| 20260905175946 | 93 | 159 | 0.0 | 9.0 | 0.00 | 0.00 | 0.00 | 53 | 1011.1 |
| 20260905172945 | 92 | 173 | 0.0 | 7.0 | 0.00 | 0.00 | 0.00 | 52 | 1011.7 |
| 20260905165944 | 91 | 180 | 0.0 | 1.0 | 0.00 | 0.00 | 0.00 | 57 | 1011.8 |
| 20260905162943 | 87 | 181 | 0.0 | 5.0 | 0.00 | 0.00 | 0.00 | 66 | 1011.8 |
| 20260905155942 | 87 | 178 | 0.0 | 2.0 | 0.00 | 0.00 | 0.00 | 70 | 1011.9 |
| 20260905145941 | 83 | 155 | 0.0 | 8.0 | 0.00 | 0.00 | 0.00 | 80 | 1011.9 |
| 20260905142940 | 82 | 136 | 0.0 | 6.0 | 0.00 | 0.00 | 0.00 | 84 | 1011.7 |
| 20260905135940 | 80 | 134 | 0.0 | 6.0 | 0.00 | 0.00 | 0.00 | 90 | 1011.5 |
| 20260905133008 | 78 | 128 | 0.0 | 0.0 | 0.00 | 0.00 | 0.00 | 94 | 1011.4 |
| 20260905130008 | 77 | 136 | 0.0 | 0.0 | 0.00 | 0.00 | 0.00 | 95 | 1011.0 |
| 20260905123007 | 75 | 136 | 0.0 | 0.0 | 0.00 | 0.00 | 0.00 | 94 | 1010.7 |
| 20260905120006 | 75 | 136 | 0.0 | 0.0 | 0.00 | 0.00 | 0.00 | 93 | 1010.6 |
| 20260905113005 | 76 | 136 | 0.0 | 0.0 | 0.00 | 0.00 | 0.00 | 92 | 1010.5 |
| 20260905110005 | 77 | 136 | 0.0 | 0.0 | 0.00 | 0.00 | 0.00 | 93 | 1010.2 |
| 20260905100003 | 78 | 136 | 0.0 | 0.0 | 0.00 | 0.00 | 0.00 | 91 | 1010.4 |
| 20260905093002 | 78 | 136 | 0.0 | 0.0 | 0.00 | 0.00 | 0.00 | 90 | 1010.3 |
| 20260905090002 | 79 | 136 | 0.0 | 6.0 | 0.00 | 0.00 | 0.00 | 89 | 1010.4 |
| 20260905083001 | 79 | 135 | 0.0 | 8.0 | 0.00 | 0.00 | 0.00 | 88 | 1010.5 |